Location: Boiro
(42.6475°N, 8.8834°W)
Time: 18:40:55
(UTC+01:00)

Explorer 11/Cluster Stage 4 - Pass Details

Date: 03 December 2021
Orbit: 467 x 1255 km, 28.8° (Epoch: 23 January)

Event Time Altitude Azimuth Distance (km) Brightness Sun altitude
Exits shadow 08:04:34 - 256° (WSW) 3,971 9.7 -8.0°
Reaches altitude 10° 08:07:53 10° 242° (WSW) 3,157 9.3 -7.4°
Maximum altitude 08:13:28 21° 198° (SSW) 2,496 9.2 -6.5°
Drops below altitude 10° 08:19:08 10° 154° (SSE) 3,205 10.6 -5.6°
Sets 08:22:49 0° 139° (SE) 4,122 11.7 -5.0°
